EST,Max TemperatureF,Mean TemperatureF,Min TemperatureF,Max Dew PointF,MeanDew PointF,Min DewpointF,Max Humidity, Mean Humidity, Min Humidity, Max Sea Level PressureIn, Mean Sea Level PressureIn, Min Sea Level PressureIn, Max VisibilityMiles, Mean VisibilityMiles, Min VisibilityMiles, Max Wind SpeedMPH, Mean Wind SpeedMPH, Max Gust SpeedMPH,PrecipitationIn, CloudCover, Events, WindDirDegrees
2013-1-1,31,20,9,24,13,6,92,71,50,30.16,30.11,30.02,10,10,7,15,5,18,0.00,5,,327
2013-1-2,23,15,7,14,10,4,92,80,67,30.25,30.20,30.13,10,10,10,10,7,14,0.00,5,,226
2013-1-3,28,19,9,22,15,2,81,69,56,30.22,30.17,30.10,10,8,5,20,11,23,0.00,7,,237
2013-1-4,28,24,19,20,16,12,81,72,62,30.25,30.19,30.14,10,10,9,28,17,37,0.00,2,,238
2013-1-5,33,26,19,29,22,15,85,76,66,30.32,30.20,30.08,10,6,2,17,8,28,T,5,Snow,216
2013-1-6,35,32,29,30,27,24,89,79,69,30.30,30.06,29.96,10,7,4,21,11,26,T,8,Snow,238
2013-1-7,33,28,23,27,23,20,85,74,63,30.44,30.34,30.21,10,8,4,21,9,29,0.00,3,,220
2013-1-8,37,30,24,26,23,19,81,72,50,30.29,30.24,30.19,8,6,4,12,8,20,0.00,0,,198
2013-1-9,45,36,26,32,29,23,85,69,53,30.50,30.24,30.09,10,10,7,26,13,33,0.00,2,,233
2013-1-10,40,31,22,30,27,20,92,78,64,30.59,30.43,30.15,10,9,6,13,5,16,T,3,Rain,98
2013-1-11,58,47,36,52,43,30,93,83,72,30.12,29.91,29.80,10,7,1,24,9,31,0.76,6,Rain,181
2013-1-12,58,53,47,52,47,43,100,86,72,29.97,29.90,29.78,10,5,0,15,7,20,0.33,3,Fog-Rain,184
2013-1-13,53,42,31,52,39,28,100,93,86,30.08,29.86,29.71,10,5,1,25,9,32,1.68,8,Rain,329
2013-1-14,31,25,19,27,18,15,85,74,63,30.46,30.34,30.08,10,10,10,21,8,25,0.00,7,,291
2013-1-15,30,22,14,18,15,11,88,71,53,30.46,30.37,30.16,10,10,7,10,3,13,0.00,1,,69
2013-1-16,36,28,19,25,19,17,91,69,47,30.14,29.99,29.87,10,10,5,24,9,30,0.00,4,,246
2013-1-17,40,30,19,27,21,7,85,65,44,30.36,30.18,30.03,10,9,5,22,10,29,0.00,3,,288
2013-1-18,36,28,20,21,16,9,77,62,47,30.48,30.32,30.05,10,10,9,24,11,35,T,4,Snow,212
2013-1-19,49,42,35,33,26,22,62,52,42,30.04,29.90,29.68,10,10,10,29,17,41,0.00,0,,225
2013-1-20,43,31,18,32,10,4,70,57,43,30.23,30.07,29.68,10,10,9,44,18,56,T,6,Snow,281
2013-1-21,20,14,8,9,4,-2,80,66,51,30.17,30.09,29.99,10,8,0,30,15,38,T,7,Snow,264
2013-1-22,11,6,1,4,-1,-9,87,72,57,30.35,30.24,30.12,10,4,1,21,10,24,0.02,7,Snow,291
2013-1-23,18,9,0,11,2,-4,88,68,47,30.34,30.23,30.06,10,9,2,18,6,25,0.01,7,Snow,234
2013-1-24,21,14,7,12,5,-3,83,61,39,30.61,30.43,30.09,10,9,2,14,7,21,T,1,Snow,346
2013-1-25,21,18,15,18,13,7,91,79,67,30.50,30.17,30.02,10,6,0,10,4,13,0.12,8,Fog-Snow,169
2013-1-26,27,21,14,19,15,10,92,74,55,30.47,30.29,30.08,10,8,4,16,6,21,T,6,Snow,293
2013-1-27,31,20,8,25,16,7,92,76,60,30.51,30.38,30.15,10,8,2,13,5,21,0.02,6,Rain-Snow,134
2013-1-28,48,40,31,46,39,27,100,89,78,30.13,29.98,29.89,6,2,0,21,10,28,0.21,8,Fog-Rain,211
2013-1-29,59,49,38,54,48,37,100,90,80,30.01,29.80,29.48,10,4,0,20,11,30,0.07,8,Fog-Rain,183
2013-1-30,63,48,33,55,46,24,96,87,77,29.42,29.27,29.16,10,8,2,35,15,43,0.39,7,Rain-Snow,233
2013-1-31,33,25,16,23,15,4,75,65,54,29.94,29.64,29.34,10,7,1,35,24,45,0.01,8,Snow,266